Location: *
(34.8620°S, 39.3380°E)
Time: 03:27:33
(UTC+00:00)

N. Korean satellite - Visible Passes

Search period start: 21 October 2021 00:00
Search period end: 31 October 2021 00:00
Orbit: 450 x 495 km, 97.3° (Epoch: 20 October)

Date Brightness Start Highest point End Pass type
(mag) Time Alt. Az. Time Alt. Az. Time Alt. Az.
21 Oct 9.7 01:06:26 10° ENE 01:08:50 17° ESE 01:11:12 10° SSE visible
23 Oct 7.4 01:42:12 10° NNE 01:45:39 55° ESE 01:49:06 10° S visible
24 Oct 9.3 01:14:54 10° NE 01:17:41 22° ESE 01:20:28 10° SSE visible
26 Oct 6.7 01:51:00 10° NNE 01:54:30 76° ESE 01:58:00 10° S visible
27 Oct 8.8 01:23:25 10° NE 01:26:29 29° ESE 01:29:32 10° SSE visible
28 Oct 10.0 00:56:59 10° E 00:58:33 13° ESE 01:00:06 10° SE visible
30 Oct 8.2 01:31:57 10° NE 01:35:11 38° ESE 01:38:27 10° S visible
